Вернуться в каталог

TYVAK-182A

АктивенСвязьSSO
NORAD 48271·PAYLOAD·🇮🇹 Italy

Запущен Apr 29, 2021 с Guiana Space Centre

Loading…

Ближайшие Пролёты (ближайшие 24 часа)

TLE

СвежийSource: Space-Track

Эпоха: Sep 14, 2026, 14:21 UTC

1 48271U 21034D   26257.59855887  .00003119  00000-0  21327-3 0  9991
2 48271  97.5627 314.9627 0006508  38.5679 321.6012 15.06839740293292

Отслеживайте TYVAK-182A в реальном времени с AllMySat

Download on the App Store